Weather History for KISP - February, 2015

Change the Weather History Date:

Friday, February 13, 2015

  Actual Average Record
Temperature  
Mean Temperature 15 °F 32 °F  
Max Temperature 20 °F 40 °F 56 °F (2008)
Min Temperature 9 °F 25 °F 9 °F (2015)
Degree Days  
Heating Degree Days 50 33  
Month to date heating degree days 532 435  
Since 1 July heating degree days 3344 3427  
Cooling Degree Days 0 0  
Month to date cooling degree days 0 0  
Year to date cooling degree days 0 0  
Moisture  
Dew Point -3 °F    
Average Humidity 47    
Maximum Humidity 58    
Minimum Humidity 35    
Precipitation  
Precipitation 0.00 in 0.10 in 2.22 in (2008)
Month to date precipitation 1.49 1.40  
Year to date precipitation 6.74 5.04  
Snow  
Snow 0.00 in 0.20 in 8.10 in (2014)
Month to date snowfall 6.0 3.1  
Since 1 July snowfall 36.6 15.7  
Snow Depth 9.00 in    
Sea Level Pressure  
Sea Level Pressure 30.06 in    
Wind  
Wind Speed 14 mph (NW)    
Max Wind Speed 26 mph    
Max Gust Speed 36 mph    
Visibility 10 miles    
Events      
T = Trace of Precipitation, MM = Missing Value Source: NWS Daily Summary

Daily Weather History Graph

Daily Weather History Graph

Search for Another Location

Airport or City:

Trip Planner

Search our weather history database for the weather conditions in past years. The results will help you decide how hot, cold, wet, or windy it might be!

Date:

Astronomy

Feb. 13, 2015 Rise Set
Actual Time 6:49 AM EST 5:24 PM EST
Civil Twilight 6:21 AM EST 5:52 PM EST
Nautical Twilight 5:48 AM EST 6:24 PM EST
Astronomical Twilight 5:17 AM EST 6:56 PM EST
Moon 1:50 AM EST (2/13) 12:03 PM EST (2/13)
Length of Visible Light 11h 31m
Length of Day
10h 35m
Waning Crescent, 34% of the Moon is Illuminated
Feb 13
Waning Crescent
Feb 18
New
Feb 25
First Quarter
Mar 5
Full
Mar 13
Last Quarter

Hourly Weather History & Observations

Time (EST) Temp. Windchill Dew Point Humidity Pressure Visibility Wind Dir Wind Speed Gust Speed Precip Events Conditions
12:56 AM 18.0 °F 1.7 °F 1.9 °F 50% 29.85 in 10.0 mi NW 19.6 mph 27.6 mph N/A   Clear
1:56 AM 14.0 °F -3.9 °F -0.0 °F 54% 29.88 in 10.0 mi WNW 20.7 mph 27.6 mph N/A   Clear
2:56 AM 12.0 °F -5.1 °F -2.0 °F 53% 29.91 in 10.0 mi NW 17.3 mph 28.8 mph N/A   Clear
3:56 AM 10.9 °F -7.0 °F -2.9 °F 54% 29.94 in 10.0 mi NW 18.4 mph 32.2 mph N/A   Clear
4:56 AM 10.0 °F -8.6 °F -4.0 °F 53% 29.97 in 10.0 mi NW 19.6 mph 29.9 mph N/A   Clear
5:56 AM 9.0 °F -7.9 °F -5.1 °F 53% 30.00 in 10.0 mi NW 15.0 mph - N/A   Partly Cloudy
6:56 AM 9.0 °F -9.0 °F -6.0 °F 51% 30.04 in 10.0 mi NW 17.3 mph 26.5 mph N/A   Partly Cloudy
7:56 AM 9.0 °F -11.0 °F -6.0 °F 51% 30.06 in 10.0 mi NW 21.9 mph 32.2 mph N/A   Partly Cloudy
8:56 AM 10.0 °F -8.6 °F -5.1 °F 51% 30.08 in 10.0 mi NW 19.6 mph 29.9 mph N/A   Partly Cloudy
9:56 AM 12.0 °F -4.0 °F -4.0 °F 49% 30.10 in 10.0 mi NW 15.0 mph 24.2 mph N/A   Partly Cloudy
10:56 AM 14.0 °F -2.5 °F -4.0 °F 45% 30.10 in 10.0 mi NW 17.3 mph 28.8 mph N/A   Clear
11:56 AM 16.0 °F 0.1 °F -2.9 °F 43% 30.09 in 10.0 mi NW 17.3 mph 28.8 mph N/A   Clear
12:56 PM 18.0 °F 3.1 °F -2.9 °F 40% 30.09 in 10.0 mi NW 16.1 mph 24.2 mph N/A   Clear
1:56 PM 18.0 °F 3.1 °F -2.9 °F 40% 30.07 in 10.0 mi NW 16.1 mph 24.2 mph N/A   Partly Cloudy
2:56 PM 19.9 °F 6.7 °F -4.0 °F 35% 30.07 in 10.0 mi NW 13.8 mph 21.9 mph N/A   Partly Cloudy
3:56 PM 19.9 °F 7.9 °F -2.9 °F 37% 30.08 in 10.0 mi WNW 11.5 mph 19.6 mph N/A   Partly Cloudy
4:56 PM 19.0 °F 6.8 °F -4.0 °F 36% 30.09 in 10.0 mi WNW 11.5 mph - N/A   Partly Cloudy
5:56 PM 18.0 °F 9.8 °F -4.0 °F 38% 30.11 in 10.0 mi West 5.8 mph - N/A   Partly Cloudy
6:56 PM 17.1 °F 8.7 °F -2.0 °F 43% 30.13 in 10.0 mi WNW 5.8 mph - N/A   Partly Cloudy
7:56 PM 16.0 °F 10.4 °F -0.9 °F 47% 30.14 in 10.0 mi West 3.5 mph - N/A   Partly Cloudy
8:56 PM 16.0 °F 6.3 °F -2.9 °F 43% 30.15 in 10.0 mi West 6.9 mph - N/A   Partly Cloudy
9:56 PM 16.0 °F 4.4 °F -2.9 °F 43% 30.14 in 10.0 mi WNW 9.2 mph - N/A   Partly Cloudy
10:56 PM 15.1 °F 4.2 °F -2.9 °F 45% 30.14 in 10.0 mi WNW 8.1 mph - N/A   Partly Cloudy
11:56 PM 14.0 °F 3.9 °F -2.9 °F 47% 30.13 in 10.0 mi WNW 6.9 mph - N/A   Scattered Clouds